Location: Paderno d�Adda
(45.6667°N, 9.4333°E)
Time: 14:39:50
(UTC+00:00)

Cosmos 1975 Rocket - Pass Details

Date: 19 September 2020
Orbit: 603 x 634 km, 82.5° (Epoch: 30 October)

Event Time Altitude Azimuth Distance (km) Brightness Sun altitude
Rises 17:45:34 0° 357° (N) 2,880 6.6 -4.4°
Reaches altitude 10° 17:47:54 10° 4° (N) 1,967 5.7 -4.8°
Maximum altitude 17:52:02 43° 76° (ENE) 862 3.4 -5.5°
Drops below altitude 10° 17:56:08 10° 148° (SSE) 1,945 5.2 -6.2°
Sets 17:58:26 0° 156° (SSE) 2,843 6.1 -6.6°
